SAS1870 EKCH-ENZV

Flight info

Callsign SAS1870
Flight time 1h 1m
Altitude 32000
Route GOLGA DCT AAL L621 LAGUM DCT RIVEX
Aircraft A320/M-SDE3FGHIJ1RWXYZ/ALB1

Departure

Time 2026-04-24 11:25
Airport Copenhagen Kastrup Airport (EKCH)

Arrival

Time 2026-04-24 12:26
Airport Stavanger Airport, Sola (ENZV)
Time Latitude Longitude Altitude Speed Heading
2026-04-24 10:29 55.62657 12.64916 27 ft 0 kts 101°
2026-04-24 11:16 55.62660 12.64891 26 ft 4 kts 105°
2026-04-24 11:16 55.62669 12.64846 27 ft 4 kts 117°
2026-04-24 11:17 55.62684 12.64809 26 ft 4 kts 149°
2026-04-24 11:17 55.62700 12.64800 27 ft 0 kts 190°
2026-04-24 11:20 55.62692 12.64798 26 ft 3 kts 190°
2026-04-24 11:20 55.62649 12.64784 24 ft 9 kts 191°
2026-04-24 11:20 55.62574 12.64771 24 ft 12 kts 179°
2026-04-24 11:21 55.62484 12.64776 24 ft 14 kts 178°
2026-04-24 11:21 55.62379 12.64782 24 ft 16 kts 178°
2026-04-24 11:21 55.62258 12.64792 24 ft 18 kts 185°
2026-04-24 11:21 55.62146 12.64697 25 ft 19 kts 209°
2026-04-24 11:22 55.62030 12.64562 24 ft 21 kts 211°
2026-04-24 11:22 55.61885 12.64513 25 ft 23 kts 169°
2026-04-24 11:22 55.61721 12.64556 24 ft 25 kts 182°
2026-04-24 11:22 55.61557 12.64430 25 ft 27 kts 214°
2026-04-24 11:23 55.61392 12.64241 26 ft 30 kts 213°
2026-04-24 11:23 55.61213 12.64032 24 ft 32 kts 214°
2026-04-24 11:23 55.61020 12.63810 25 ft 34 kts 212°
2026-04-24 11:23 55.60863 12.63630 25 ft 18 kts 213°
2026-04-24 11:24 55.60755 12.63670 24 ft 18 kts 137°
2026-04-24 11:24 55.60680 12.63829 25 ft 11 kts 107°
2026-04-24 11:24 55.60709 12.63917 25 ft 9 kts 21°
2026-04-24 11:24 55.60768 12.64005 26 ft 17 kts 41°
2026-04-24 11:25 55.61045 12.64433 23 ft 88 kts 41°
2026-04-24 11:25 55.61647 12.65361 28 ft 140 kts 40°
2026-04-24 11:25 55.62420 12.66543 475 ft 149 kts 38°
2026-04-24 11:25 55.63216 12.67793 1104 ft 156 kts 35°
2026-04-24 11:26 55.64066 12.69118 1459 ft 175 kts 36°
2026-04-24 11:26 55.65058 12.70587 1751 ft 196 kts 28°
2026-04-24 11:26 55.66420 12.71082 2005 ft 211 kts 347°
2026-04-24 11:26 55.67913 12.70378 2496 ft 232 kts 343°
2026-04-24 11:27 55.69520 12.69758 3369 ft 240 kts 351°
2026-04-24 11:27 55.71187 12.69496 4308 ft 245 kts 355°
2026-04-24 11:27 55.72911 12.69363 5284 ft 247 kts 357°
2026-04-24 11:27 55.74617 12.69261 6211 ft 250 kts 357°
2026-04-24 11:28 55.76368 12.69147 7086 ft 254 kts 356°
2026-04-24 11:28 55.78171 12.69010 7931 ft 258 kts 356°
2026-04-24 11:28 55.79945 12.68705 8742 ft 262 kts 344°
2026-04-24 11:28 55.81578 12.67270 9541 ft 267 kts 320°
2026-04-24 11:29 55.82894 12.64844 10303 ft 273 kts 313°
2026-04-24 11:29 55.84200 12.62269 10579 ft 296 kts 313°
2026-04-24 11:29 55.85630 12.59430 11019 ft 309 kts 313°
2026-04-24 11:29 55.87054 12.56598 11704 ft 313 kts 313°
2026-04-24 11:30 55.88516 12.53695 12458 ft 316 kts 313°
2026-04-24 11:30 55.89993 12.50770 13196 ft 319 kts 313°
2026-04-24 11:30 55.91479 12.47826 13971 ft 320 kts 313°
2026-04-24 11:30 55.92976 12.44860 14646 ft 323 kts 313°
2026-04-24 11:31 55.94485 12.41863 15289 ft 326 kts 313°
2026-04-24 11:31 55.96004 12.38840 15950 ft 329 kts 312°
2026-04-24 11:31 55.97536 12.35784 16588 ft 332 kts 312°
2026-04-24 11:31 55.99081 12.32700 17224 ft 335 kts 312°
2026-04-24 11:32 56.00642 12.29580 17860 ft 338 kts 311°
2026-04-24 11:32 56.02217 12.26433 18480 ft 341 kts 311°
2026-04-24 11:32 56.03807 12.23258 19056 ft 344 kts 311°
2026-04-24 11:32 56.05410 12.20053 19668 ft 346 kts 311°
2026-04-24 11:33 56.07017 12.16831 20284 ft 348 kts 311°
2026-04-24 11:33 56.08637 12.13581 20886 ft 351 kts 311°
2026-04-24 11:33 56.10266 12.10309 21484 ft 353 kts 311°
2026-04-24 11:33 56.11901 12.07015 22057 ft 355 kts 310°
2026-04-24 11:34 56.13542 12.03700 22623 ft 357 kts 310°
2026-04-24 11:34 56.15194 12.00356 23240 ft 358 kts 310°
2026-04-24 11:34 56.16851 11.96998 23792 ft 361 kts 310°
2026-04-24 11:34 56.18519 11.93617 24260 ft 363 kts 310°
2026-04-24 11:35 56.20195 11.90212 24714 ft 365 kts 310°
2026-04-24 11:35 56.21882 11.86779 25154 ft 367 kts 310°
2026-04-24 11:35 56.23576 11.83324 25591 ft 370 kts 310°
2026-04-24 11:35 56.25282 11.79841 26018 ft 372 kts 310°
2026-04-24 11:36 56.26996 11.76337 26435 ft 375 kts 310°
2026-04-24 11:36 56.28723 11.72803 26876 ft 377 kts 310°
2026-04-24 11:36 56.30457 11.69258 27322 ft 378 kts 310°
2026-04-24 11:36 56.32196 11.65699 27738 ft 379 kts 310°
2026-04-24 11:37 56.33941 11.62117 28138 ft 382 kts 310°
2026-04-24 11:37 56.35696 11.58508 28529 ft 384 kts 310°
2026-04-24 11:37 56.37460 11.54875 28918 ft 386 kts 310°
2026-04-24 11:37 56.39228 11.51225 29322 ft 388 kts 310°
2026-04-24 11:38 56.41006 11.47549 29725 ft 389 kts 310°
2026-04-24 11:38 56.42791 11.43852 30107 ft 392 kts 310°
2026-04-24 11:38 56.44584 11.40131 30445 ft 394 kts 310°
2026-04-24 11:38 56.46388 11.36384 30747 ft 396 kts 309°
2026-04-24 11:39 56.48199 11.32612 31056 ft 398 kts 309°
2026-04-24 11:39 56.50020 11.28819 31365 ft 400 kts 309°
2026-04-24 11:39 56.51839 11.25024 31781 ft 399 kts 309°
2026-04-24 11:39 56.53657 11.21224 32045 ft 399 kts 309°
2026-04-24 11:40 56.55457 11.17466 32098 ft 388 kts 309°
2026-04-24 11:40 56.57207 11.13809 32101 ft 381 kts 309°
2026-04-24 11:40 56.60626 11.06617 32098 ft 378 kts 309°
2026-04-24 11:41 56.64042 10.99419 32106 ft 374 kts 309°
2026-04-24 11:41 56.67420 10.92284 32106 ft 372 kts 309°
2026-04-24 11:42 56.70787 10.85151 32107 ft 371 kts 309°
2026-04-24 11:42 56.74150 10.77998 32111 ft 372 kts 309°
2026-04-24 11:43 56.77508 10.70831 32109 ft 372 kts 309°
2026-04-24 11:43 56.80868 10.63650 32117 ft 372 kts 309°
2026-04-24 11:44 56.84223 10.56441 32108 ft 372 kts 309°
2026-04-24 11:44 56.87577 10.49226 32112 ft 373 kts 309°
2026-04-24 11:45 56.90934 10.41996 32112 ft 373 kts 309°
2026-04-24 11:45 56.94281 10.34746 32110 ft 373 kts 309°
2026-04-24 11:46 56.97616 10.27509 32117 ft 369 kts 308°
2026-04-24 11:46 57.00908 10.20335 32116 ft 367 kts 308°
2026-04-24 11:47 57.04183 10.13165 32110 ft 366 kts 308°
2026-04-24 11:47 57.07456 10.05997 32066 ft 366 kts 308°
2026-04-24 11:48 57.10728 9.98799 32064 ft 368 kts 308°
2026-04-24 11:48 57.14127 9.91727 32065 ft 370 kts 310°
2026-04-24 11:49 57.17601 9.84739 32072 ft 370 kts 310°
2026-04-24 11:49 57.21061 9.77712 32078 ft 370 kts 310°
2026-04-24 11:50 57.24480 9.70693 32085 ft 370 kts 310°
2026-04-24 11:50 57.27917 9.63613 32090 ft 370 kts 310°
2026-04-24 11:51 57.31344 9.56518 32106 ft 369 kts 309°
2026-04-24 11:51 57.34759 9.49427 32108 ft 369 kts 309°
2026-04-24 11:52 57.37616 9.43471 32114 ft 369 kts 309°
2026-04-24 11:52 57.41022 9.36348 32115 ft 369 kts 309°
2026-04-24 11:53 57.44406 9.29252 32116 ft 369 kts 309°
2026-04-24 11:53 57.47534 9.21648 32117 ft 368 kts 304°
2026-04-24 11:54 57.50492 9.13886 32117 ft 368 kts 304°
2026-04-24 11:54 57.53422 9.06168 32117 ft 368 kts 304°
2026-04-24 11:55 57.56366 8.98378 32085 ft 368 kts 304°
2026-04-24 11:55 57.59311 8.90557 32003 ft 367 kts 303°
2026-04-24 11:56 57.60762 8.86699 31736 ft 360 kts 303°
2026-04-24 11:56 57.62191 8.82897 31532 ft 355 kts 303°
2026-04-24 11:56 57.63594 8.79150 31280 ft 350 kts 303°
2026-04-24 11:56 57.64982 8.75436 31030 ft 347 kts 303°
2026-04-24 11:57 57.66359 8.71745 30783 ft 345 kts 303°
2026-04-24 11:57 57.67728 8.68074 30538 ft 343 kts 303°
2026-04-24 11:57 57.69087 8.64424 30293 ft 342 kts 303°
2026-04-24 11:57 57.70439 8.60783 30034 ft 340 kts 303°
2026-04-24 11:58 57.71781 8.57165 29751 ft 338 kts 303°
2026-04-24 11:58 57.73117 8.53562 29467 ft 336 kts 303°
2026-04-24 11:58 57.74444 8.49977 29157 ft 334 kts 303°
2026-04-24 11:58 57.75770 8.46385 28874 ft 336 kts 303°
2026-04-24 11:59 57.77097 8.42786 28597 ft 335 kts 303°
2026-04-24 11:59 57.78418 8.39197 28326 ft 334 kts 303°
2026-04-24 11:59 57.79734 8.35619 28057 ft 332 kts 303°
2026-04-24 11:59 57.81039 8.32061 27792 ft 331 kts 303°
2026-04-24 12:00 57.82337 8.28517 27528 ft 329 kts 304°
2026-04-24 12:00 57.83627 8.24991 27267 ft 327 kts 304°
2026-04-24 12:00 57.84906 8.21497 27009 ft 325 kts 304°
2026-04-24 12:00 57.86185 8.18007 26757 ft 324 kts 304°
2026-04-24 12:01 57.87456 8.14530 26497 ft 322 kts 304°
2026-04-24 12:01 57.88720 8.11066 26237 ft 321 kts 304°
2026-04-24 12:01 57.89974 8.07619 26007 ft 319 kts 304°
2026-04-24 12:01 57.91224 8.04175 25747 ft 318 kts 304°
2026-04-24 12:02 57.92466 8.00749 25489 ft 316 kts 304°
2026-04-24 12:02 57.93703 7.97334 25245 ft 315 kts 304°
2026-04-24 12:02 57.94932 7.93938 24987 ft 314 kts 304°
2026-04-24 12:02 57.96161 7.90537 24773 ft 312 kts 304°
2026-04-24 12:03 57.97370 7.87173 24533 ft 309 kts 304°
2026-04-24 12:03 57.98573 7.83816 24302 ft 308 kts 304°
2026-04-24 12:03 57.99769 7.80474 24064 ft 307 kts 304°
2026-04-24 12:03 58.00947 7.77197 23841 ft 305 kts 304°
2026-04-24 12:04 58.02136 7.73889 23596 ft 304 kts 304°
2026-04-24 12:04 58.03320 7.70589 23323 ft 303 kts 304°
2026-04-24 12:04 58.04497 7.67296 23047 ft 302 kts 304°
2026-04-24 12:04 58.05669 7.64011 22778 ft 301 kts 304°
2026-04-24 12:05 58.06837 7.60735 22509 ft 300 kts 304°
2026-04-24 12:05 58.08003 7.57466 22242 ft 300 kts 304°
2026-04-24 12:05 58.09163 7.54205 21979 ft 299 kts 304°
2026-04-24 12:05 58.10319 7.50949 21721 ft 298 kts 304°
2026-04-24 12:06 58.11472 7.47692 21463 ft 297 kts 304°
2026-04-24 12:06 58.12618 7.44452 21204 ft 296 kts 304°
2026-04-24 12:06 58.13763 7.41216 20945 ft 295 kts 304°
2026-04-24 12:06 58.14901 7.37993 20685 ft 295 kts 304°
2026-04-24 12:07 58.16042 7.34757 20426 ft 295 kts 304°
2026-04-24 12:07 58.17179 7.31524 20178 ft 295 kts 304°
2026-04-24 12:07 58.18313 7.28293 19928 ft 294 kts 305°
2026-04-24 12:07 58.19445 7.25070 19683 ft 293 kts 305°
2026-04-24 12:08 58.20574 7.21852 19445 ft 293 kts 304°
2026-04-24 12:08 58.21701 7.18636 19201 ft 292 kts 305°
2026-04-24 12:08 58.22822 7.15431 18973 ft 291 kts 305°
2026-04-24 12:08 58.23938 7.12229 18735 ft 291 kts 304°
2026-04-24 12:09 58.25050 7.09036 18489 ft 290 kts 304°
2026-04-24 12:09 58.26148 7.05881 18240 ft 283 kts 305°
2026-04-24 12:09 58.27226 7.02787 17909 ft 279 kts 305°
2026-04-24 12:09 58.28286 6.99731 17568 ft 275 kts 305°
2026-04-24 12:10 58.29332 6.96709 17252 ft 273 kts 305°
2026-04-24 12:10 58.30373 6.93707 16924 ft 271 kts 305°
2026-04-24 12:10 58.31403 6.90734 16588 ft 266 kts 305°
2026-04-24 12:11 58.33423 6.84892 15943 ft 263 kts 305°
2026-04-24 12:11 58.34424 6.81992 15591 ft 261 kts 305°
2026-04-24 12:11 58.35420 6.79107 15294 ft 260 kts 305°
2026-04-24 12:11 58.36410 6.76233 14983 ft 259 kts 305°
2026-04-24 12:12 58.37395 6.73358 14660 ft 259 kts 304°
2026-04-24 12:12 58.38376 6.70490 14380 ft 258 kts 304°
2026-04-24 12:12 58.39356 6.67620 14063 ft 258 kts 304°
2026-04-24 12:12 58.40336 6.64761 13732 ft 258 kts 304°
2026-04-24 12:13 58.41313 6.61908 13414 ft 256 kts 304°
2026-04-24 12:13 58.42284 6.59071 13085 ft 255 kts 304°
2026-04-24 12:13 58.43251 6.56242 12774 ft 254 kts 304°
2026-04-24 12:13 58.44208 6.53429 12458 ft 253 kts 304°
2026-04-24 12:14 58.45162 6.50620 12148 ft 251 kts 304°
2026-04-24 12:14 58.46112 6.47832 11866 ft 250 kts 304°
2026-04-24 12:14 58.47060 6.45046 11566 ft 250 kts 304°
2026-04-24 12:14 58.48010 6.42247 11262 ft 252 kts 303°
2026-04-24 12:15 58.48962 6.39433 10939 ft 252 kts 304°
2026-04-24 12:15 58.49915 6.36616 10630 ft 252 kts 304°
2026-04-24 12:15 58.50864 6.33802 10315 ft 251 kts 304°
2026-04-24 12:15 58.51813 6.30999 10004 ft 252 kts 304°
2026-04-24 12:16 58.52747 6.28228 9669 ft 251 kts 304°
2026-04-24 12:16 58.53703 6.25398 9356 ft 249 kts 304°
2026-04-24 12:16 58.54639 6.22624 9047 ft 248 kts 304°
2026-04-24 12:16 58.55591 6.19802 8555 ft 254 kts 304°
2026-04-24 12:17 58.56544 6.16956 8211 ft 254 kts 304°
2026-04-24 12:17 58.57480 6.14157 7896 ft 253 kts 304°
2026-04-24 12:17 58.58439 6.11284 7563 ft 252 kts 304°
2026-04-24 12:17 58.59381 6.08457 7251 ft 251 kts 304°
2026-04-24 12:18 58.60308 6.05684 6938 ft 249 kts 304°
2026-04-24 12:18 58.61237 6.02896 6625 ft 247 kts 304°
2026-04-24 12:18 58.62154 6.00129 6305 ft 244 kts 304°
2026-04-24 12:18 58.63062 5.97396 6003 ft 241 kts 305°
2026-04-24 12:19 58.63962 5.94696 5693 ft 240 kts 305°
2026-04-24 12:19 58.64869 5.91974 5376 ft 235 kts 305°
2026-04-24 12:19 58.65713 5.89429 5096 ft 223 kts 306°
2026-04-24 12:19 58.66529 5.86964 4826 ft 216 kts 306°
2026-04-24 12:20 58.67314 5.84575 4540 ft 207 kts 307°
2026-04-24 12:20 58.68058 5.82303 4283 ft 194 kts 307°
2026-04-24 12:20 58.68755 5.80173 4043 ft 182 kts 306°
2026-04-24 12:20 58.69408 5.78174 3855 ft 169 kts 307°
2026-04-24 12:21 58.70006 5.76350 3606 ft 154 kts 309°
2026-04-24 12:21 58.70568 5.74684 3394 ft 150 kts 314°
2026-04-24 12:21 58.71312 5.73227 3169 ft 153 kts 324°
2026-04-24 12:21 58.72126 5.71905 2955 ft 152 kts 324°
2026-04-24 12:22 58.72936 5.70590 2734 ft 154 kts 324°
2026-04-24 12:22 58.73760 5.69258 2508 ft 155 kts 324°
2026-04-24 12:22 58.74592 5.67981 2283 ft 151 kts 329°
2026-04-24 12:22 58.75495 5.66954 2071 ft 151 kts 336°
2026-04-24 12:23 58.76456 5.66174 1895 ft 149 kts 342°
2026-04-24 12:23 58.77445 5.65671 1768 ft 143 kts 349°
2026-04-24 12:23 58.78371 5.65364 1665 ft 128 kts 349°
2026-04-24 12:23 58.79227 5.65075 1557 ft 124 kts 349°
2026-04-24 12:24 58.80066 5.64792 1424 ft 122 kts 348°
2026-04-24 12:24 58.80904 5.64500 1249 ft 122 kts 348°
2026-04-24 12:24 58.81741 5.64210 1149 ft 123 kts 349°
2026-04-24 12:24 58.82586 5.63988 953 ft 122 kts 353°
2026-04-24 12:25 58.83428 5.63917 820 ft 124 kts 352°
2026-04-24 12:25 58.84299 5.63898 739 ft 124 kts 355°
2026-04-24 12:25 58.85142 5.63857 532 ft 120 kts 351°
2026-04-24 12:25 58.86004 5.63834 325 ft 125 kts 357°
2026-04-24 12:26 58.86855 5.63805 115 ft 122 kts 353°
2026-04-24 12:26 58.87665 5.63794 42 ft 102 kts 351°
2026-04-24 12:26 58.88248 5.63751 31 ft 61 kts 359°
2026-04-24 12:26 58.88566 5.63740 29 ft 41 kts 359°
2026-04-24 12:27 58.88675 5.63740 28 ft 7 kts 348°
2026-04-24 12:27 58.88747 5.63738 27 ft 18 kts
2026-04-24 12:27 58.88928 5.63740 25 ft 31 kts 360°
2026-04-24 12:27 58.89151 5.63735 21 ft 34 kts 359°
2026-04-24 12:28 58.89336 5.63664 18 ft 17 kts 302°
2026-04-24 12:28 58.89334 5.63434 19 ft 17 kts 242°
2026-04-24 12:28 58.89262 5.63409 19 ft 13 kts 178°
2026-04-24 12:28 58.89152 5.63413 19 ft 17 kts 180°
2026-04-24 12:29 58.89024 5.63409 18 ft 20 kts 179°
2026-04-24 12:29 58.88875 5.63413 18 ft 23 kts 179°
2026-04-24 12:29 58.88708 5.63417 18 ft 25 kts 179°
2026-04-24 12:29 58.88521 5.63420 17 ft 28 kts 178°
2026-04-24 12:30 58.88425 5.63254 19 ft 17 kts 231°
2026-04-24 12:30 58.88317 5.63253 17 ft 12 kts 176°
2026-04-24 12:30 58.88290 5.63152 17 ft 10 kts 245°
2026-04-24 12:30 58.88277 5.63085 17 ft 0 kts 255°
2026-04-24 12:31 58.88276 5.63081 17 ft 0 kts 255°